Flag for United Kingdom Past Weather in Lerwick (Shetland Islands), Scotland, United Kingdom — Yesterday and Last 2 Weeks

Now
56 °F

Light rain. Low clouds.


Feels Like: 49 °F
Forecast: 54 / 58 °F
Wind: 33 mph from Southwest

Location: Lerwick

Current Time: Aug 30, 2016 at 2:33:31 AM

Latest Report: Aug 30, 2016 at 1:00 AM


Visibility: 3 mi

Pressure: 29.79 "Hg

Humidity: 98%

Dew Point: 55 °F

Location of Lerwick (Shetland Islands)Location

Past Weather in Lerwick (Shetland Islands) — Graph

°F

Lerwick (Shetland Islands) Temperature Yesterday

Maximum temperature yesterday: 57 °F (at 2:00 PM)
Minimum temperature yesterday: 50 °F (at 12:00 AM)
Average temperature yesterday: 53 °F

High & Low Weather Summary for the Past Weeks

 TemperatureHumidityPressure
High59 °F (Aug 27, 3:00 PM)100% (Aug 17, 2:00 AM)30.29 "Hg (Aug 17, 2:00 AM)
Low49 °F (Aug 25, 1:00 AM)72% (Aug 25, 6:00 PM)29.57 "Hg (Aug 20, 3:00 PM)
Average54 °F93%29.99 "Hg
* Reported Aug 15 1:00 AM — Aug 30 1:00 AM, Lerwick (Shetland Islands), Weather by CustomWeather, © 2016

Note: Actual official high and low records may vary slightly from our data, if they occured in-between our weather recording intervals... More about our weather records

Advertising

Lerwick (Shetland Islands) Weather History for the Previous 24 Hours

Scroll right to see more
 ConditionsComfort  
Time TempWeatherWind HumidityBarometerVisibility
1:00 AM
Tue, Aug 30
56 °FLight rain. Low clouds.33 mph98%29.79 "Hg3 mi
12:00 AM55 °FLight rain. Overcast.33 mph94%29.81 "Hg4 mi
11:00 PM
Mon, Aug 29
54 °FRain. Low clouds.23 mph98%29.83 "Hg2 mi
10:00 PM53 °FRain. Low clouds.22 mph97%29.87 "Hg3 mi
9:00 PM53 °FLight rain. Low clouds.21 mph91%29.89 "Hg7 mi
8:00 PM53 °FLight rain. Low clouds.13 mph93%29.91 "Hg7 mi
7:00 PM54 °FLow clouds.16 mph88%29.92 "Hg22 mi
6:00 PM55 °FLow clouds.18 mph89%29.94 "Hg19 mi
5:00 PM56 °FOvercast.17 mph82%29.95 "Hg28 mi
4:00 PM56 °FOvercast.16 mph79%29.97 "Hg31 mi
3:00 PM56 °FPartly sunny.16 mph80%29.97 "Hg37 mi
2:00 PM57 °FPassing clouds.14 mph78%29.98 "Hg43 mi
1:00 PM54 °FPartly sunny.15 mph82%29.98 "Hg31 mi
12:00 PM54 °FOvercast.13 mph84%29.98 "Hg34 mi
11:00 AM53 °FOvercast.12 mph82%29.98 "Hg31 mi
10:00 AM53 °FOvercast.12 mph84%29.97 "Hg28 mi
9:00 AM52 °FOvercast.9 mph89%29.97 "Hg28 mi
8:00 AM51 °FLow clouds.7 mph92%29.97 "Hg22 mi
7:00 AM51 °FSprinkles. Low clouds.13 mph98%29.97 "Hg3 mi
6:00 AM52 °FFog.8 mph99%29.96 "Hg9 mi
5:00 AM52 °FCool.7 mph99%29.97 "Hg2 mi
4:00 AM51 °FFog.8 mph100%29.97 "Hg1 mi
3:00 AM50 °FFog.12 mph99%29.98 "Hg7 mi
2:00 AM50 °FFog.8 mph98%29.98 "Hg0 mi
Weather by CustomWeather, © 2016

See weather overviewHow to use our weather pages